Location: Sperry Observatory
(40.6664°N, 74.3236°W)
Time: 07:44:30
(UTC-04:00)

Amateur Radio Satellites - All Passes

Search period start: 25 March 2017 07:14
Search period end: 26 March 2017 07:14
Location: Sperry Observatory, 40.6664°N, 74.3236°W

Satellite Date Start Highest point End Downlink Frequencies (MHz)
Time Altitude Azimuth
CUTE 1.7 + AOD 2 25 Mar 07:19:27 07:20:42 11° 90° (E) 07:21:57 437.475
XW-2D 25 Mar 07:20:09 07:23:54 71° 284° (WNW) 07:27:36 145.860 - 145.880
NUDT-PHONESAT 25 Mar 07:25:50 07:29:32 78° 281° (W) 07:33:11 437.300
XW-2B 25 Mar 07:26:04 07:29:46 62° 285° (WNW) 07:33:28 145.730 - 145.750
KAITUO 1B 25 Mar 07:30:58 07:34:38 66° 284° (WNW) 07:38:17 145.475/437.950
AO-85 25 Mar 07:32:44 07:35:52 23° 246° (WSW) 07:39:05 145.980
XW-2C 25 Mar 07:36:16 07:39:51 44° 287° (WNW) 07:43:26 145.795 - 145.815
BEESAT 3 25 Mar 07:37:26 07:41:14 38° 52° (NE) 07:44:59 437.485
STRAND 1 25 Mar 07:48:24 07:53:30 65° 258° (WSW) 07:58:39 437.568
BEESAT 2 25 Mar 07:49:35 07:52:51 23° 47° (NE) 07:56:07 435.950
YUBILEINY 25 Mar 08:02:30 08:11:07 65° 92° (E) 08:19:42 435.215
XW-2A 25 Mar 08:04:11 08:07:28 45° 99° (E) 08:10:42 145.665 - 145.685
CUTE-I 25 Mar 08:12:45 08:17:38 37° 292° (WNW) 08:22:29 437.470
CUBEBUG 2 25 Mar 08:18:38 08:22:16 24° 94° (E) 08:25:46 437.445
DOVE 4 25 Mar 08:24:16 08:27:52 19° 296° (WNW) 08:31:28 437.250
NO-84 25 Mar 08:28:44 08:31:20 31° 324° (NW) 08:33:58 435.350 FM
LilacSat-2 25 Mar 08:29:55 08:31:06 11° 295° (WNW) 08:32:16 437.200
XW-2F 25 Mar 08:31:27 08:32:41 11° 295° (WNW) 08:33:55 145.980 - 146.000
ZACube-1 25 Mar 08:34:39 08:36:15 12° 90° (E) 08:37:51 437.345
AAUSAT CUBESAT 2 25 Mar 08:38:39 08:42:14 28° 96° (E) 08:45:49 437.432
HO-68 25 Mar 08:44:01 08:51:13 82° 105° (ESE) 08:58:24 435.675
SEEDS 25 Mar 08:48:55 08:53:07 81° 102° (ESE) 08:57:19 437.485
CUTE 1.7 + AOD 2 25 Mar 08:52:44 08:56:53 59° 286° (WNW) 09:01:02 437.475
FO-29 25 Mar 08:56:47 09:01:41 19° 58° (ENE) 09:06:25 435.910
PRISM 25 Mar 08:57:33 09:00:51 24° 68° (ENE) 09:04:10 437.425
AO-73 25 Mar 09:02:33 09:05:55 23° 94° (E) 09:09:13 145.935
TIGRISAT 25 Mar 09:07:36 09:10:36 17° 64° (ENE) 09:13:36 435.000
BEESAT 3 25 Mar 09:15:44 09:18:32 18° 249° (WSW) 09:21:20 437.485
UNISAT 6 25 Mar 09:16:33 09:20:11 22° 67° (ENE) 09:23:47 437.425
UWE-3 25 Mar 09:24:13 09:28:34 81° 100° (E) 09:32:47 435.000/436.395/437.385
PCSat 25 Mar 09:26:11 09:30:29 25° 107° (ESE) 09:34:49 145.827
BEESAT 2 25 Mar 09:27:00 09:30:42 35° 245° (WSW) 09:34:22 435.950
CUBEBUG 2 25 Mar 09:55:02 09:58:52 29° 291° (WNW) 10:02:34 437.445
YUBILEINY 25 Mar 10:01:23 10:08:32 27° 292° (WNW) 10:15:43 435.215
Oscar 11 25 Mar 10:04:01 10:08:20 82° 282° (WNW) 10:12:38 .
ZACube-1 25 Mar 10:08:45 10:12:55 54° 286° (WNW) 10:16:58 437.345
DELFI C3 25 Mar 10:12:02 10:15:43 35° 97° (E) 10:19:23 145.870
AAUSAT CUBESAT 2 25 Mar 10:14:17 10:17:34 23° 291° (WNW) 10:20:50 437.432
PRISM 25 Mar 10:32:39 10:36:03 25° 264° (W) 10:39:28 437.425
HO-68 25 Mar 10:33:13 10:38:07 20° 304° (NW) 10:43:00 435.675
POLYITAN 1 25 Mar 10:35:33 10:37:09 12° 63° (ENE) 10:38:45 437.675
AIST 2D 25 Mar 10:36:16 10:38:28 16° 68° (ENE) 10:40:39 435.315
FO-29 25 Mar 10:37:53 10:45:45 85° 75° (ENE) 10:53:14 435.910
AO-73 25 Mar 10:38:31 10:42:08 28° 291° (WNW) 10:45:41 145.935
QB50P2 25 Mar 10:39:21 10:41:37 14° 64° (ENE) 10:43:53 145.880/145.840
TIGRISAT 25 Mar 10:42:16 10:46:51 52° 260° (W) 10:51:26 435.000
UNISAT 6 25 Mar 10:52:15 10:56:37 38° 262° (W) 11:01:00 437.425
DUCHIFAT 1 25 Mar 10:53:36 10:56:07 15° 64° (ENE) 10:58:37 145.980
PCSat 25 Mar 11:08:23 11:13:34 46° 304° (NW) 11:18:49 145.827
RS-15 25 Mar 11:10:05 11:16:13 16° 95° (E) 11:22:24 29.354- 29.394
NANOSAT C BR1 25 Mar 11:36:57 11:41:03 49° 73° (ENE) 11:45:12 145.865
EO-79 25 Mar 11:40:28 11:44:40 60° 74° (ENE) 11:48:54 145.935-145.965
DELFI C3 25 Mar 11:47:34 11:50:14 17° 293° (WNW) 11:52:54 145.870
POLYITAN 1 25 Mar 12:08:07 12:12:22 65° 259° (WSW) 12:16:39 437.675
AIST 2D 25 Mar 12:08:17 12:11:26 29° 263° (W) 12:14:35 435.315
ESTCUBE 1 25 Mar 12:09:01 12:13:23 47° 99° (E) 12:17:44 437.505/2401.250
QB50P2 25 Mar 12:12:46 12:16:57 53° 260° (W) 12:21:09 145.880/145.840
LO-87 25 Mar 12:13:32 12:17:10 64° 284° (WNW) 12:20:46 145.935 - 145.965
FO-29 25 Mar 12:26:08 12:31:22 19° 270° (W) 12:36:29 435.910
DUCHIFAT 1 25 Mar 12:27:16 12:31:22 47° 261° (W) 12:35:30 145.980
SPROUT 25 Mar 12:46:59 12:50:51 31° 97° (E) 12:54:39 437.525
BUGSAT 1 25 Mar 12:48:56 12:53:09 83° 259° (W) 12:57:26 437.445
Oscar 19 25 Mar 12:50:45 12:55:16 33° 68° (ENE) 12:59:49 437.125/150
Gurwin Techsat 1B 25 Mar 12:54:31 12:58:28 22° 64° (ENE) 13:02:26 435.225
DX 1 25 Mar 13:09:55 13:13:37 26° 96° (E) 13:17:17 434.975-435.025
RS-15 25 Mar 13:14:27 13:26:16 72° 116° (ESE) 13:38:33 29.354- 29.394
NANOSAT C BR1 25 Mar 13:14:51 13:17:02 14° 269° (W) 13:19:14 145.865
50 SAT 25 Mar 13:16:59 13:20:25 50° 100° (E) 13:23:50 437.505
EO-79 25 Mar 13:19:22 13:20:48 11° 270° (W) 13:22:14 145.935-145.965
NO-84 25 Mar 13:25:14 13:27:23 17° 29° (NNE) 13:29:37 435.350 FM
VELOX 1 25 Mar 13:27:42 13:32:11 80° 284° (WNW) 13:36:38 145.980
ESTCUBE 1 25 Mar 13:46:55 13:49:48 17° 296° (WNW) 13:52:42 437.505/2401.250
UKube-1 25 Mar 13:52:25 13:56:41 54° 101° (E) 14:00:55 .
AO-7 25 Mar 14:08:25 14:15:14 29° 56° (NE) 14:22:01 .
SPROUT 25 Mar 14:23:14 14:26:34 22° 293° (WNW) 14:29:51 437.525
SO-50 25 Mar 14:25:26 14:28:38 19° 110° (ESE) 14:31:48 436.795
Oscar 19 25 Mar 14:30:09 14:34:33 29° 264° (W) 14:39:00 437.125/150
Gurwin Techsat 1B 25 Mar 14:32:54 14:38:02 50° 260° (W) 14:43:13 435.225
ITAMSAT 1 25 Mar 14:34:40 14:39:12 31° 67° (ENE) 14:43:45 435.822/435.867
DX 1 25 Mar 14:45:59 14:49:44 28° 292° (WNW) 14:53:28 434.975-435.025
NO-84 25 Mar 15:01:56 15:05:10 66° 225° (SW) 15:08:42 435.350 FM
BEESAT 25 Mar 15:03:23 15:07:11 23° 95° (E) 15:10:56 436.000
ITUPSAT 1 25 Mar 15:18:22 15:22:38 32° 97° (E) 15:26:52 437.325
RS-15 25 Mar 15:28:32 15:39:47 41° 321° (NW) 15:51:19 29.354- 29.394
UKube-1 25 Mar 15:29:55 15:32:15 14° 297° (WNW) 15:34:35 .
MOZHAYETS 4 25 Mar 15:32:16 15:35:29 19° 93° (E) 15:38:42
AO-7 25 Mar 15:59:06 16:07:22 67° 255° (WSW) 16:15:40 .
SO-50 25 Mar 16:04:12 16:08:43 50° 307° (NW) 16:13:12 436.795
ITAMSAT 1 25 Mar 16:13:54 16:18:34 33° 263° (W) 16:23:16 435.822/435.867
CUBESAT XI-V 25 Mar 16:23:22 16:23:52 10° 89° (E) 16:24:24 437.345
BEESAT 25 Mar 16:40:41 16:45:01 36° 291° (WNW) 16:49:20 436.000
ITUPSAT 1 25 Mar 16:56:22 17:00:20 26° 293° (WNW) 17:04:15 437.325
KKS-1 25 Mar 16:58:45 17:02:48 32° 97° (E) 17:06:48 437.445
O/OREOS (USA 219) 25 Mar 17:06:45 17:11:01 42° 106° (ESE) 17:15:20 437.305
MOZHAYETS 4 25 Mar 17:08:32 17:12:47 40° 289° (WNW) 17:17:02
HO-68 25 Mar 17:30:32 17:32:34 11° 49° (NE) 17:34:35 435.675
LilacSat-2 25 Mar 17:35:23 17:38:31 24° 70° (ENE) 17:41:39 437.200
XW-2F 25 Mar 17:36:18 17:39:19 23° 69° (ENE) 17:42:20 145.980 - 146.000
STARS 25 Mar 17:38:16 17:42:24 38° 98° (E) 17:46:30 437.465
RS-15 25 Mar 17:48:02 17:57:04 22° 354° (N) 18:06:06 29.354- 29.394
DOVE 4 25 Mar 17:50:17 17:54:46 52° 73° (ENE) 17:59:35 437.250
CUTE-I 25 Mar 17:54:14 17:59:19 45° 70° (ENE) 18:04:25 437.470
CUBESAT XI-V 25 Mar 17:57:06 18:01:45 76° 285° (WNW) 18:06:25 437.345
AO-7 25 Mar 17:59:33 18:01:33 11° 273° (W) 18:03:34 .
XW-2D 25 Mar 18:00:43 18:04:23 48° 74° (ENE) 18:08:05 145.860 - 145.880
NUDT-PHONESAT 25 Mar 18:04:38 18:08:10 41° 73° (ENE) 18:11:43 437.300
XW-2B 25 Mar 18:06:34 18:10:18 56° 74° (ENE) 18:14:01 145.730 - 145.750
KAITUO 1B 25 Mar 18:10:20 18:13:58 49° 75° (ENE) 18:17:36 145.475/437.950
YUBILEINY 25 Mar 18:13:28 18:20:59 31° 70° (ENE) 18:28:27 435.215
PCSat 25 Mar 18:13:40 18:17:51 22° 46° (NE) 18:22:00 145.827
XW-2C 25 Mar 18:16:37 18:20:24 77° 78° (ENE) 18:24:14 145.795 - 145.815
M-CUBED/EXP-1 PRIME 25 Mar 18:24:02 18:26:57 16° 97° (E) 18:29:51 437.505
KKS-1 25 Mar 18:35:36 18:39:10 24° 293° (WNW) 18:42:43 437.445
XW-2A 25 Mar 18:36:12 18:38:19 16° 68° (ENE) 18:40:27 145.665 - 145.685
O/OREOS (USA 219) 25 Mar 18:47:17 18:50:37 20° 304° (NW) 18:54:00 437.305
LilacSat-2 25 Mar 19:09:42 19:12:44 22° 265° (W) 19:15:46 437.200
XW-2F 25 Mar 19:10:18 19:13:22 23° 265° (W) 19:16:27 145.980 - 146.000
HO-68 25 Mar 19:11:50 19:18:49 59° 69° (ENE) 19:25:49 435.675
STARS 25 Mar 19:15:14 19:18:28 20° 295° (WNW) 19:21:42 437.465
CUBEBUG 2 25 Mar 19:16:05 19:19:45 23° 67° (ENE) 19:23:24 437.445
AAUSAT CUBESAT 2 25 Mar 19:29:02 19:31:52 18° 67° (ENE) 19:34:43 437.432
DOVE 4 25 Mar 19:30:02 19:32:51 16° 271° (W) 19:35:47 437.250
ZACube-1 25 Mar 19:30:48 19:32:09 11° 62° (ENE) 19:33:30 437.345
CUTE-I 25 Mar 19:35:20 19:39:32 23° 266° (W) 19:43:45 437.470
XW-2D 25 Mar 19:37:45 19:38:51 11° 269° (W) 19:39:57 145.860 - 145.880
SEEDS 25 Mar 19:39:56 19:43:57 50° 74° (ENE) 19:48:00 437.485
NUDT-PHONESAT 25 Mar 19:40:39 19:42:18 12° 268° (W) 19:43:57 437.300
CUTE 1.7 + AOD 2 25 Mar 19:44:30 19:48:43 90° 21° (NNE) 19:52:57 437.475
KAITUO 1B 25 Mar 19:47:33 19:48:15 10° 269° (W) 19:48:57 145.475/437.950
PCSat 25 Mar 19:56:18 20:01:40 62° 245° (WSW) 20:07:00 145.827
M-CUBED/EXP-1 PRIME 25 Mar 19:57:05 20:01:36 55° 291° (WNW) 20:06:09 437.505
AO-73 25 Mar 19:57:44 20:00:58 20° 67° (ENE) 20:04:11 145.935
STRAND 1 25 Mar 19:59:17 20:04:10 44° 99° (E) 20:09:00 437.568
RS-15 25 Mar 20:04:31 20:15:10 32° 30° (NNE) 20:25:30 29.354- 29.394
XW-2A 25 Mar 20:07:49 20:10:51 28° 263° (W) 20:13:54 145.665 - 145.685
AO-85 25 Mar 20:09:18 20:10:14 11° 109° (ESE) 20:11:09 145.980
YUBILEINY 25 Mar 20:09:45 20:18:11 57° 270° (W) 20:26:37 435.215
UWE-3 25 Mar 20:19:58 20:24:34 62° 75° (ENE) 20:29:09 435.000/436.395/437.385
ISS 25 Mar 20:34:07 20:36:28 19° 132° (SE) 20:38:51 437.550
Tancredo 1 25 Mar 20:38:58 20:41:32 23° 134° (SE) 20:44:07 437.200
CUBEBUG 2 25 Mar 20:51:39 20:56:06 39° 263° (W) 21:00:32 437.445
DELFI C3 25 Mar 20:57:47 21:00:38 20° 68° (ENE) 21:03:29 145.870
Oscar 11 25 Mar 20:57:59 21:02:17 72° 76° (ENE) 21:06:35 .
HO-68 25 Mar 21:01:10 21:06:54 26° 266° (W) 21:12:41 435.675
ZACube-1 25 Mar 21:03:14 21:07:48 77° 259° (WSW) 21:12:19 437.345
AAUSAT CUBESAT 2 25 Mar 21:03:19 21:07:04 35° 263° (W) 21:10:51 437.432
SEEDS 25 Mar 21:18:04 21:19:55 13° 269° (W) 21:21:48 437.485
AO-73 25 Mar 21:32:37 21:36:54 40° 262° (W) 21:41:09 145.935
STRAND 1 25 Mar 21:39:07 21:43:02 23° 295° (WNW) 21:46:56 437.568
AO-85 25 Mar 21:45:41 21:50:08 74° 303° (WNW) 21:54:17 145.980
UWE-3 25 Mar 21:59:14 22:01:23 13° 270° (W) 22:03:31 435.000/436.395/437.385
ISS 25 Mar 22:09:32 22:12:42 47° 328° (NNW) 22:15:54 437.550
PRISM 25 Mar 22:13:24 22:17:21 40° 99° (E) 22:21:16 437.425
Tancredo 1 25 Mar 22:14:33 22:17:32 38° 331° (NNW) 22:20:33 437.200
RS-15 25 Mar 22:17:27 22:29:51 83° 58° (ENE) 22:41:38 29.354- 29.394
DELFI C3 25 Mar 22:31:47 22:35:13 29° 263° (W) 22:38:41 145.870
TIGRISAT 25 Mar 22:34:27 22:38:25 32° 96° (E) 22:42:18 435.000
UNISAT 6 25 Mar 22:44:07 22:48:23 45° 98° (E) 22:52:31 437.425
LO-87 25 Mar 22:49:05 22:52:30 43° 73° (ENE) 22:55:58 145.935 - 145.965
SO-50 25 Mar 22:56:09 22:59:18 18° 43° (NE) 23:02:24 436.795
BEESAT 3 25 Mar 23:03:50 23:07:43 76° 120° (ESE) 23:11:42 437.485
ESTCUBE 1 25 Mar 23:08:04 23:12:16 41° 71° (ENE) 23:16:28 437.505/2401.250
BEESAT 2 25 Mar 23:17:35 23:21:17 39° 116° (ESE) 23:25:02 435.950
AO-85 25 Mar 23:30:33 23:31:11 10° 321° (NW) 23:31:48 145.980
AIST 2D 25 Mar 23:34:03 23:36:34 18° 94° (E) 23:39:03 435.315
FO-29 25 Mar 23:34:21 23:40:27 77° 102° (ESE) 23:45:52 435.910
SPROUT 25 Mar 23:40:11 23:43:38 24° 68° (ENE) 23:47:06 437.525
ISS 25 Mar 23:47:48 23:49:47 15° 347° (NNW) 23:51:47 437.550
PRISM 25 Mar 23:49:35 23:52:18 17° 295° (WNW) 23:55:00 437.425
50 SAT 25 Mar 23:50:57 23:53:23 18° 68° (ENE) 23:55:50 437.505
Tancredo 1 25 Mar 23:52:42 23:54:22 13° 350° (N) 23:56:03 437.200
POLYITAN 1 25 Mar 23:54:00 23:57:09 20° 94° (E) 00:00:16 437.675
QB50P2 25 Mar 23:58:19 00:01:47 24° 95° (E) 00:05:14 145.880/145.840
DX 1 26 Mar 00:05:20 00:08:43 22° 67° (ENE) 00:12:06 434.975-435.025
TIGRISAT 26 Mar 00:11:28 00:14:55 22° 293° (WNW) 00:18:17 435.000
DUCHIFAT 1 26 Mar 00:11:48 00:15:21 26° 96° (E) 00:18:52 145.980
UNISAT 6 26 Mar 00:21:53 00:24:42 17° 296° (WNW) 00:27:29 437.425
VELOX 1 26 Mar 00:24:12 00:28:36 86° 73° (ENE) 00:33:03 145.980
LO-87 26 Mar 00:25:16 00:26:12 11° 269° (W) 00:27:07 145.935 - 145.965
RS-15 26 Mar 00:31:31 00:40:51 27° 259° (W) 00:49:54 29.354- 29.394
BUGSAT 1 26 Mar 00:32:30 00:34:47 14° 92° (E) 00:37:03 437.445
SO-50 26 Mar 00:35:42 00:40:08 61° 241° (WSW) 00:44:34 436.795
BEESAT 3 26 Mar 00:43:57 00:45:50 13° 319° (NW) 00:47:43 437.485
ESTCUBE 1 26 Mar 00:46:12 00:49:14 18° 267° (W) 00:52:17 437.505/2401.250
UKube-1 26 Mar 00:46:21 00:50:24 43° 72° (ENE) 00:54:31 .
BEESAT 2 26 Mar 00:56:12 00:59:12 20° 314° (NW) 01:02:15 435.950
NANOSAT C BR1 26 Mar 00:56:54 01:01:09 84° 282° (WNW) 01:05:21 145.865
EO-79 26 Mar 01:00:58 01:05:11 69° 286° (WNW) 01:09:22 145.935-145.965
Oscar 19 26 Mar 01:04:46 01:06:13 11° 89° (E) 01:07:41 437.125/150
AIST 2D 26 Mar 01:06:55 01:09:44 23° 290° (WNW) 01:12:33 435.315
SPROUT 26 Mar 01:15:39 01:19:24 29° 264° (W) 01:23:11 437.525
FO-29 26 Mar 01:21:08 01:24:36 16° 304° (WNW) 01:27:54 435.910
50 SAT 26 Mar 01:23:27 01:26:16 23° 264° (W) 01:29:07 437.505
ISS 26 Mar 01:25:37 01:27:19 13° 8° (N) 01:29:01 437.550
POLYITAN 1 26 Mar 01:29:11 01:32:59 33° 290° (WNW) 01:36:45 437.675
Tancredo 1 26 Mar 01:29:55 01:31:34 13° 10° (N) 01:33:14 437.200
QB50P2 26 Mar 01:33:55 01:37:32 27° 291° (WNW) 01:41:07 145.880/145.840
DX 1 26 Mar 01:40:48 01:44:41 32° 262° (W) 01:48:38 434.975-435.025
DUCHIFAT 1 26 Mar 01:47:27 01:50:56 25° 292° (WNW) 01:54:24 145.980
BUGSAT 1 26 Mar 02:06:22 02:10:23 45° 288° (WNW) 02:14:19 437.445
BEESAT 26 Mar 02:09:25 02:13:23 27° 67° (ENE) 02:17:23 436.000
UKube-1 26 Mar 02:23:56 02:26:38 16° 267° (W) 02:29:21 .
ITUPSAT 1 26 Mar 02:24:37 02:29:01 37° 69° (ENE) 02:33:25 437.325
MOZHAYETS 4 26 Mar 02:34:05 02:37:16 19° 65° (ENE) 02:40:25
Oscar 19 26 Mar 02:40:57 02:46:08 83° 285° (WNW) 02:51:19 437.125/150
Gurwin Techsat 1B 26 Mar 02:49:08 02:54:28 67° 103° (ESE) 02:59:44 435.225
ISS 26 Mar 03:01:32 03:04:34 32° 28° (NNE) 03:07:35 437.550
Tancredo 1 26 Mar 03:05:23 03:08:25 37° 30° (NNE) 03:11:25 437.200
O/OREOS (USA 219) 26 Mar 03:16:44 03:21:23 79° 68° (ENE) 03:25:58 437.305
CUBESAT XI-V 26 Mar 03:26:39 03:27:39 11° 61° (ENE) 03:28:39 437.345
BEESAT 26 Mar 03:46:46 03:51:01 32° 263° (W) 03:55:19 436.000
KKS-1 26 Mar 03:56:26 04:00:18 29° 68° (ENE) 04:04:10 437.445
AO-7 26 Mar 04:01:09 04:08:57 43° 100° (E) 04:16:41 .
ITUPSAT 1 26 Mar 04:03:07 04:06:54 23° 265° (W) 04:10:42 437.325
MOZHAYETS 4 26 Mar 04:09:40 04:14:04 44° 262° (W) 04:18:28
Oscar 19 26 Mar 04:23:22 04:24:36 11° 302° (WNW) 04:25:52 437.125/150
ITAMSAT 1 26 Mar 04:26:17 04:31:31 89° 94° (E) 04:36:43 435.822/435.867
Gurwin Techsat 1B 26 Mar 04:30:34 04:33:49 17° 299° (WNW) 04:37:05 435.225
STARS 26 Mar 04:34:25 04:38:21 33° 69° (ENE) 04:42:20 437.465
ISS 26 Mar 04:38:02 04:41:00 31° 225° (SW) 04:43:58 437.550
Tancredo 1 26 Mar 04:41:45 04:44:26 24° 226° (SW) 04:47:06 437.200
CUBESAT XI-V 26 Mar 04:59:44 05:04:19 82° 257° (WSW) 05:08:57 437.345
M-CUBED/EXP-1 PRIME 26 Mar 05:10:14 05:12:31 16° 58° (ENE) 05:14:54 437.505
KKS-1 26 Mar 05:33:07 05:36:48 25° 264° (W) 05:40:32 437.445
DOVE 4 26 Mar 05:50:15 05:53:45 18° 90° (E) 05:57:14 437.250
AO-7 26 Mar 05:53:59 06:01:40 44° 298° (WNW) 06:09:19 .
ITAMSAT 1 26 Mar 06:08:14 06:10:12 12° 302° (WNW) 06:12:10 435.822/435.867
STARS 26 Mar 06:11:16 06:14:44 22° 265° (W) 06:18:13 437.465
CUTE-I 26 Mar 06:12:33 06:16:08 18° 92° (E) 06:19:41 437.470
AO-85 26 Mar 06:17:03 06:21:00 80° 58° (ENE) 06:25:03 145.980
NO-84 26 Mar 06:21:40 06:23:05 13° 127° (SE) 06:24:29 435.350 FM
XW-2F 26 Mar 06:42:07 06:45:32 32° 97° (E) 06:48:54 145.980 - 146.000
LilacSat-2 26 Mar 06:42:23 06:45:53 36° 98° (E) 06:49:22 437.200
M-CUBED/EXP-1 PRIME 26 Mar 06:43:08 06:46:35 40° 258° (WSW) 06:50:18 437.505
